Home > Weather > Peterborough > Past weeks

Flag for United Kingdom Past Weather in Peterborough, England, United Kingdom — Yesterday and Last 2 Weeks

Now
64 °F

Scattered clouds.


Feels Like: 64 °F
Forecast: 48 / 63 °F
Wind: 20 mph from Southwest

Location: Wittering

Current Time: Jul 1, 2016 at 2:41:55 PM

Latest Report: Jul 1, 2016 at 1:50 PM


Visibility: N/A

Pressure: 29.68 "Hg

Humidity: 60%

Dew Point: 50 °F

Location of PeterboroughLocation

Past Weather in Peterborough — Graph

°F

Peterborough Temperature Yesterday

Maximum temperature yesterday: 68 °F (at 1:50 PM)
Minimum temperature yesterday: 52 °F (at 3:50 AM)
Average temperature yesterday: 59 °F

High & Low Weather Summary for the Past Weeks

 TemperatureHumidityPressure
High68 °F (Jun 20, 3:50 PM)100% (Jun 16, 11:50 PM)30.21 "Hg (Jun 16, 11:50 PM)
Low48 °F (Jun 28, 4:50 AM)49% (Jun 27, 1:50 PM)29.53 "Hg (Jun 16, 1:50 PM)
Average59 °F84%29.92 "Hg
* Reported Jun 16 12:50 PM — Jul 1 12:50 PM, Peterborough, Weather by CustomWeather, © 2016

Note: Actual official high and low records may vary slightly from our data, if they occured in-between our weather recording intervals... More about our weather records

Advertising

Peterborough Weather History for the Previous 24 Hours

Scroll right to see more
 ConditionsComfort  
Time TempWeatherWind HumidityBarometerVisibility
12:50 PM
Fri, Jul 1
63 °FPartly sunny.20 mph59%29.71 "HgN/A
11:50 AM61 °FPartly sunny.12 mph63%29.71 "HgN/A
10:50 AM63 °FPartly sunny.15 mph64%29.71 "HgN/A
9:50 AM61 °FPartly sunny.16 mph68%29.71 "HgN/A
8:50 AM61 °FPartly sunny.15 mph72%29.71 "HgN/A
7:50 AM59 °FPartly sunny.15 mph82%29.71 "HgN/A
6:50 AM57 °FPartly sunny.12 mph94%29.71 "HgN/A
5:50 AM57 °FPartly sunny.13 mph88%29.71 "HgN/A
4:50 AM57 °FOvercast.13 mph94%29.71 "HgN/A
3:50 AM57 °FPassing clouds.12 mph94%29.68 "HgN/A
2:50 AM57 °FPassing clouds.17 mph94%29.68 "Hg5 mi
1:50 AM59 °FPassing clouds.13 mph88%29.68 "HgN/A
12:50 AM59 °FPassing clouds.17 mph94%29.68 "HgN/A
11:50 PM
Thu, Jun 30
59 °FPartly cloudy.15 mph94%29.68 "HgN/A
10:50 PM57 °FSprinkles. Partly cloudy.8 mph100%29.71 "HgN/A
9:50 PM59 °FSprinkles. Partly sunny.8 mph88%29.71 "HgN/A
8:50 PM59 °FPartly sunny.6 mph88%29.71 "HgN/A
7:50 PM61 °FSprinkles. Partly sunny.9 mph72%29.74 "HgN/A
6:50 PM63 °FOvercast.12 mph64%29.74 "HgN/A
5:50 PM63 °FOvercast.10 mph68%29.74 "HgN/A
4:50 PM64 °FMore clouds than sun.17 mph56%29.77 "HgN/A
3:50 PM64 °FPartly sunny.15 mph64%29.77 "HgN/A
2:50 PM68 °FBroken clouds.15 mph56%29.74 "HgN/A
Weather by CustomWeather, © 2016

See weather overviewHow to use our weather pages